This demonstration page uses our WeatherBlox Daily Observations layout. Learn more.

Hourly Observations for March 10, 2016

Temp ( °F °C ) Dew Point ( °F °C ) Humidity (%) Winds ( mph kmh ) Pressure ( in mb ) Visibility ( mi km ) Precip ( " mm )
12:15 am 00:15 Clear 64 18 52 11 64 64 SW 5 7 30.06 1018 10 16.09344 0 0
12:35 am 00:35 Clear 64 18 52 11 64 64 SW 5 7 30.09 1019 10 16.09344 0 0
12:55 am 00:55 Clear 63 17 52 11 68 68 WSW 3 6 30.09 1019 10 16.09344 0 0
1:15 am 01:15 Clear 63 17 52 11 68 68 Calm 30.09 1019 10 16.09344 0 0
1:35 am 01:35 Clear 61 16 52 11 72 72 WSW 3 6 30.09 1019 10 16.09344 0 0
1:55 am 01:55 Clear 63 17 52 11 68 68 SW 6 9 30.06 1018 10 16.09344 0 0
2:15 am 02:15 Clear 63 17 52 11 68 68 Calm 30.09 1019 10 16.09344 0 0
2:35 am 02:35 Clear 63 17 52 11 68 68 S 5 7 30.06 1018 10 16.09344 0 0
2:55 am 02:55 Clear 61 16 52 11 72 72 S 6 9 30.06 1018 10 16.09344 0 0
3:15 am 03:15 Clear 61 16 52 11 72 72 S 6 9 30.06 1018 10 16.09344 0 0
3:35 am 03:35 Clear 61 16 52 11 72 72 S 6 9 30.06 1018 10 16.09344 0 0
3:55 am 03:55 Clear 61 16 52 11 72 72 S 5 7 30.06 1018 10 16.09344 0 0
4:15 am 04:15 Clear 59 15 52 11 77 77 Calm 30.06 1018 10 16.09344 0 0
4:35 am 04:35 Clear 59 15 52 11 77 77 S 5 7 30.06 1018 10 16.09344 0 0
4:55 am 04:55 Clear 59 15 52 11 77 77 Calm 30.09 1019 10 16.09344 0 0
5:15 am 05:15 Clear 57 14 52 11 82 82 Calm 30.09 1019 10 16.09344 0 0
5:35 am 05:35 Clear 57 14 52 11 82 82 Calm 30.09 1019 10 16.09344 0 0
5:55 am 05:55 Clear 55 13 52 11 88 88 Calm 30.09 1019 10 16.09344 0 0
6:15 am 06:15 Clear 54 12 52 11 94 94 Calm 30.09 1019 10 16.09344 0 0
6:35 am 06:35 Sunny 55 13 52 11 88 88 Calm 30.09 1019 10 16.09344 0 0
6:55 am 06:55 Sunny 55 13 52 11 88 88 Calm 30.09 1019 10 16.09344 0 0
7:15 am 07:15 Sunny 55 13 52 11 88 88 S 6 9 30.09 1019 10 16.09344 0 0
7:35 am 07:35 Sunny 55 13 52 11 88 88 S 7 11 30.09 1019 10 16.09344 0 0
7:55 am 07:55 Sunny 59 15 54 12 82 82 S 6 9 30.09 1019 10 16.09344 0 0
8:15 am 08:15 Sunny 63 17 55 13 77 77 S 5 7 30.09 1019 10 16.09344 0 0
8:35 am 08:35 Sunny 63 17 55 13 77 77 Calm 30.09 1019 10 16.09344 0 0
8:55 am 08:55 Sunny 64 18 55 13 73 73 S 3 6 30.09 1019 10 16.09344 0 0
9:15 am 09:15 Sunny 68 20 55 13 64 64 SW 5 7 30.12 1020 10 16.09344 0 0
9:35 am 09:35 Sunny 70 21 55 13 60 60 S 6 9 30.12 1020 10 16.09344 0 0
9:55 am 09:55 Sunny 72 22 55 13 57 57 S 6 9 30.12 1020 10 16.09344 0 0
10:15 am 10:15 Sunny 72 22 55 13 57 57 SSW 5 7 30.09 1019 10 16.09344 0 0
10:35 am 10:35 Sunny 73 23 55 13 53 53 SSW 5 7 30.09 1019 10 16.09344 0 0
10:55 am 10:55 Sunny 77 25 54 12 44 44 S 8 13 30.09 1019 10 16.09344 0 0
11:15 am 11:15 Sunny 77 25 54 12 44 44 SW 7 11 30.09 1019 10 16.09344 0 0
11:35 am 11:35 Sunny 77 25 54 12 44 44 S 9 15 30.06 1018 10 16.09344 0 0
11:55 am 11:55 Sunny 79 26 55 13 45 45 SSE 10 17 30.06 1018 10 16.09344 0 0
12:15 pm 12:15 Sunny 77 25 55 13 47 47 S 9 15 30.06 1018 10 16.09344 0 0
12:35 pm 12:35 Sunny 79 26 55 13 45 45 S 12 19 30.06 1018 10 16.09344 0 0
12:55 pm 12:55 Sunny 79 26 55 13 45 45 S 10 17 30.03 1017 10 16.09344 0 0
1:15 pm 13:15 Sunny 79 26 55 13 45 45 SSW 8 13 30.03 1017 10 16.09344 0 0
1:35 pm 13:35 Sunny 79 26 54 12 42 42 WSW 9 15 30 1016 10 16.09344 0 0
1:55 pm 13:55 Sunny 81 27 54 12 39 39 WSW 8 13 30 1016 10 16.09344 0 0
2:15 pm 14:15 Sunny 81 27 54 12 39 39 SSW 10 17 30 1016 10 16.09344 0 0
2:35 pm 14:35 Sunny 79 26 54 12 42 42 SSW 9 15 30 1016 10 16.09344 0 0
2:55 pm 14:55 Sunny 79 26 55 13 45 45 S 13 20 29.97 1015 10 16.09344 0 0
3:15 pm 15:15 Sunny 79 26 55 13 45 45 S 16 26 29.97 1015 10 16.09344 0 0
3:35 pm 15:35 Sunny 81 27 55 13 42 42 SSW 14 22 29.97 1015 10 16.09344 0 0
3:55 pm 15:55 Sunny 81 27 55 13 42 42 S 15 24 29.97 1015 10 16.09344 0 0
4:15 pm 16:15 Sunny 79 26 55 13 45 45 SSW 14 22 29.94 1014 10 16.09344 0 0
4:35 pm 16:35 Sunny 77 25 57 14 51 51 S 10 17 29.94 1014 10 16.09344 0 0
4:55 pm 16:55 Sunny 77 25 57 14 51 51 SSW 10 17 29.97 1015 10 16.09344 0 0
5:15 pm 17:15 Sunny 77 25 57 14 51 51 SSW 8 13 29.97 1015 10 16.09344 0 0
5:35 pm 17:35 Sunny 77 25 57 14 51 51 SSW 7 11 29.97 1015 10 16.09344 0 0
5:55 pm 17:55 Sunny 75 24 57 14 54 54 SSW 7 11 29.97 1015 10 16.09344 0 0
6:15 pm 18:15 Clear 75 24 57 14 54 54 S 13 20 29.94 1014 10 16.09344 0 0
6:35 pm 18:35 Clear 73 23 59 15 61 61 S 9 15 29.94 1014 10 16.09344 0 0
6:55 pm 18:55 Clear 72 22 59 15 65 65 S 8 13 29.94 1014 10 16.09344 0 0
7:15 pm 19:15 Clear 72 22 59 15 65 65 S 8 13 29.94 1014 10 16.09344 0 0
7:35 pm 19:35 Clear 72 22 59 15 65 65 SSW 8 13 29.94 1014 10 16.09344 0 0
7:55 pm 19:55 Clear 72 22 59 15 65 65 SSW 8 13 29.94 1014 10 16.09344 0 0
8:15 pm 20:15 Clear 72 22 59 15 65 65 SSW 9 15 29.94 1014 10 16.09344 0 0
8:35 pm 20:35 Clear 72 22 59 15 65 65 SSW 9 15 29.94 1014 10 16.09344 0 0
8:55 pm 20:55 Clear 72 22 59 15 65 65 SSW 10 17 29.94 1014 10 16.09344 0 0
9:15 pm 21:15 Clear 70 21 59 15 69 69 SSW 8 13 29.94 1014 10 16.09344 0 0
9:35 pm 21:35 Clear 70 21 59 15 69 69 SSW 9 15 29.94 1014 10 16.09344 0 0
9:55 pm 21:55 Clear 72 22 59 15 65 65 SW 7 11 29.94 1014 10 16.09344 0 0
10:15 pm 22:15 Clear 72 22 59 15 65 65 SW 7 11 29.94 1014 10 16.09344 0 0
10:35 pm 22:35 Clear 70 21 59 15 69 69 SW 7 11 29.94 1014 10 16.09344 0 0
10:55 pm 22:55 Clear 70 21 59 15 69 69 SW 6 9 29.94 1014 10 16.09344 0 0
11:15 pm 23:15 Clear 70 21 59 15 69 69 WSW 5 7 29.94 1014 10 16.09344 0 0
11:35 pm 23:35 Clear 68 20 59 15 73 73 W 6 9 29.94 1014 10 16.09344 0 0
11:55 pm 23:55 Partly Cloudy 68 20 59 15 73 73 NW 7 11 29.97 1015 10 16.09344 0 0

Powered by AerisWeather